Time,TemperatureF,DewpointF,PressureIn,WindDirection,WindDirectionDegrees,WindSpeedMPH,WindSpeedGustMPH,Humidity,HourlyPrecipIn,Conditions,Clouds,dailyrainin,SoftwareType,DateUTC
2013-01-01 00:00:00,39.0,-99.9,-100.00,SSE,160,7.0,11.0,-999,-99.99,,,-99.99,,2013-01-01 08:00:00,
2013-01-01 00:50:00,39.0,-99.9,-100.00,SSE,166,10.0,11.0,-999,-99.99,,,-99.99,,2013-01-01 08:50:00,
2013-01-01 00:54:00,39.0,-99.9,-100.00,SSE,160,7.0,11.0,-999,-99.99,,,-99.99,,2013-01-01 08:54:00,
2013-01-01 01:22:00,39.0,-99.9,-100.00,SE,144,7.0,9.0,-999,-99.99,,,-99.99,,2013-01-01 09:22:00,
2013-01-01 01:32:00,39.0,-99.9,-100.00,SSE,166,10.0,11.0,-999,-99.99,,,-99.99,,2013-01-01 09:32:00,
2013-01-01 01:43:00,39.0,-99.9,-100.00,SSE,166,10.0,11.0,-999,-99.99,,,-99.99,,2013-01-01 09:43:00,
2013-01-01 04:23:00,39.0,-99.9,-100.00,SSE,154,6.0,9.0,-999,-99.99,,,-99.99,,2013-01-01 12:23:00,
2013-01-01 04:33:00,39.0,-99.9,-100.00,SSE,154,6.0,9.0,-999,-99.99,,,-99.99,,2013-01-01 12:33:00,
2013-01-01 06:23:00,39.0,-99.9,-100.00,SSE,153,7.0,10.0,-999,-99.99,,,-99.99,,2013-01-01 14:23:00,
2013-01-01 06:33:00,40.0,-99.9,-100.00,South,169,6.0,9.0,-999,-99.99,,,-99.99,,2013-01-01 14:33:00,
2013-01-01 06:43:00,40.0,-99.9,-100.00,South,169,6.0,9.0,-999,-99.99,,,-99.99,,2013-01-01 14:43:00,
2013-01-01 06:53:00,40.0,-99.9,-100.00,South,169,6.0,9.0,-999,-99.99,,,-99.99,,2013-01-01 14:53:00,
2013-01-01 07:03:00,40.0,-99.9,-100.00,South,173,5.0,9.0,-999,-99.99,,,-99.99,,2013-01-01 15:03:00,
2013-01-01 07:13:00,40.0,-99.9,-100.00,South,173,5.0,9.0,-999,-99.99,,,-99.99,,2013-01-01 15:13:00,
2013-01-01 07:22:00,40.0,-99.9,-100.00,South,173,5.0,9.0,-999,-99.99,,,-99.99,,2013-01-01 15:22:00,
2013-01-01 10:03:00,46.0,-99.9,-100.00,South,169,2.0,6.0,-999,-99.99,,,-99.99,,2013-01-01 18:03:00,
2013-01-01 10:13:00,46.0,-99.9,-100.00,South,169,2.0,6.0,-999,-99.99,,,-99.99,,2013-01-01 18:13:00,
2013-01-01 10:23:00,49.0,-99.9,-100.00,SSE,160,4.0,5.0,-999,-99.99,,,-99.99,,2013-01-01 18:23:00,
2013-01-01 10:33:00,49.0,-99.9,-100.00,SSE,160,4.0,5.0,-999,-99.99,,,-99.99,,2013-01-01 18:33:00,
2013-01-01 11:22:00,54.0,-99.9,-100.00,SSW,196,1.0,4.0,-999,-99.99,,,-99.99,,2013-01-01 19:22:00,
2013-01-01 11:33:00,54.0,-99.9,-100.00,SSW,196,1.0,4.0,-999,-99.99,,,-99.99,,2013-01-01 19:33:00,
2013-01-01 13:22:00,58.0,-99.9,-100.00,East,92,2.0,8.0,-999,-99.99,,,-99.99,,2013-01-01 21:22:00,
2013-01-01 13:33:00,58.0,-99.9,-100.00,East,92,2.0,8.0,-999,-99.99,,,-99.99,,2013-01-01 21:33:00,
2013-01-01 13:43:00,58.0,-99.9,-100.00,East,92,2.0,8.0,-999,-99.99,,,-99.99,,2013-01-01 21:43:00,
2013-01-01 16:33:00,56.0,-99.9,-100.00,South,171,6.0,9.0,-999,-99.99,,,-99.99,,2013-01-02 00:33:00,
2013-01-01 16:43:00,56.0,-99.9,-100.00,South,171,6.0,9.0,-999,-99.99,,,-99.99,,2013-01-02 00:43:00,
2013-01-01 17:40:00,52.0,-99.9,-100.00,South,174,9.0,10.0,-999,-99.99,,,-99.99,,2013-01-02 01:40:00,
2013-01-01 18:22:00,52.0,-99.9,-100.00,South,174,9.0,10.0,-999,-99.99,,,-99.99,,2013-01-02 02:22:00,
2013-01-01 18:33:00,52.0,-99.9,-100.00,South,174,9.0,10.0,-999,-99.99,,,-99.99,,2013-01-02 02:33:00,
2013-01-01 20:53:00,50.0,-99.9,-100.00,South,179,4.0,5.0,-999,-99.99,,,-99.99,,2013-01-02 04:53:00,
2013-01-01 21:03:00,50.0,-99.9,-100.00,South,179,4.0,5.0,-999,-99.99,,,-99.99,,2013-01-02 05:03:00,
2013-01-01 22:02:00,44.0,-99.9,-100.00,South,185,5.0,6.0,-999,-99.99,,,-99.99,,2013-01-02 06:02:00,
2013-01-01 22:12:00,44.0,-99.9,-100.00,South,185,5.0,6.0,-999,-99.99,,,-99.99,,2013-01-02 06:12:00,
2013-01-01 22:22:00,44.0,-99.9,-100.00,South,186,3.0,5.0,-999,-99.99,,,-99.99,,2013-01-02 06:22:00,
2013-01-01 22:33:00,44.0,-99.9,-100.00,South,186,3.0,5.0,-999,-99.99,,,-99.99,,2013-01-02 06:33:00,